QPF
0.00 0.00 0.00 0.00 0.00 0.00 0.00 0.00 0.00 0.00 0.00 0.00 0.00 0.00 0.00 0.00 0.00 0.00 0.00 0.00 0.00 0.00 0.00 0.00 0.00 0.01 0.03 0.04 0.07 0.10 0.14 0.16 0.15 0.11 0.12 0.16 0.15 0.09 0.06 0.03 0.02 0.01 0.00
0.00 0.00 0.00 0.00 0.00 0.00 0.00 0.00 0.00 0.00 0.00 0.00 0.00 0.00 0.00 0.00 0.00 0.00 0.00 0.00 0.01 0.00 0.00 0.00 0.00 0.00 0.01 0.03 0.05 0.08 0.10 0.13 0.16 0.17 0.18 0.21 0.21 0.18 0.14 0.05 0.01 0.00 0.00
0.00 0.00 0.00 0.00 0.00 0.00 0.00 0.00 0.00 0.00 0.00 0.00 0.00 0.00 0.00 0.00 0.00 0.00 0.00 0.00 0.01 0.00 0.01 0.01 0.00 0.00 0.00 0.01 0.03 0.05 0.07 0.10 0.12 0.15 0.18 0.23 0.30 0.31 0.20 0.07 0.01 0.00 0.00
0.00 0.00 0.00 0.00 0.00 0.00 0.00 0.00 0.00 0.00 0.00 0.00 0.00 0.00 0.00 0.00 0.00 0.00 0.00 0.00 0.00 0.00 0.00 0.01 0.01 0.01 0.01 0.01 0.01 0.03 0.05 0.09 0.11 0.14 0.19 0.27 0.32 0.36 0.25 0.13 0.03 0.01 0.00
0.00 0.00 0.00 0.00 0.00 0.00 0.00 0.00 0.00 0.00 0.00 0.00 0.00 0.00 0.00 0.00 0.00 0.00 0.00 0.00 0.00 0.01 0.01 0.01 0.01 0.02 0.02 0.01 0.01 0.02 0.04 0.07 0.10 0.12 0.17 0.26 0.30 0.32 0.22 0.14 0.07 0.02 0.00
0.00 0.00 0.00 0.00 0.00 0.00 0.00 0.00 0.00 0.00 0.00 0.00 0.00 0.00 0.00 0.00 0.00 0.00 0.00 0.00 0.00 0.01 0.01 0.01 0.01 0.02 0.03 0.02 0.02 0.01 0.03 0.05 0.08 0.10 0.13 0.19 0.23 0.24 0.25 0.19 0.09 0.03 0.01
0.00 0.00 0.00 0.00 0.00 0.00 0.00 0.00 0.00 0.00 0.00 0.00 0.00 0.00 0.00 0.00 0.00 0.00 0.00 0.00 0.00 0.00 0.01 0.01 0.01 0.01 0.02 0.03 0.03 0.03 0.02 0.03 0.06 0.09 0.12 0.14 0.22 0.26 0.28 0.21 0.11 0.05 0.01
0.00 0.00 0.00 0.00 0.00 0.00 0.00 0.00 0.00 0.00 0.00 0.00 0.00 0.00 0.00 0.00 0.00 0.00 0.00 0.00 0.00 0.00 0.01 0.02 0.02 0.02 0.03 0.06 0.06 0.04 0.02 0.02 0.02 0.06 0.10 0.14 0.19 0.29 0.33 0.32 0.24 0.10 0.03
0.00 0.00 0.00 0.00 0.00 0.00 0.00 0.00 0.00 0.01 0.00 0.00 0.00 0.01 0.01 0.00 0.01 0.01 0.01 0.01 0.01 0.01 0.01 0.02 0.04 0.04 0.04 0.08 0.10 0.07 0.04 0.02 0.02 0.03 0.07 0.12 0.17 0.25 0.35 0.40 0.33 0.16 0.05
0.00 0.00 0.00 0.00 0.00 0.00 0.00 0.00 0.01 0.01 0.01 0.01 0.01 0.01 0.02 0.01 0.01 0.01 0.01 0.01 0.01 0.02 0.02 0.03 0.06 0.08 0.07 0.08 0.11 0.10 0.06 0.03 0.03 0.02 0.04 0.08 0.13 0.21 0.30 0.31 0.30 0.22 0.09
0.00 0.00 0.00 0.00 0.00 0.00 0.00 0.00 0.01 0.01 0.01 0.01 0.02 0.02 0.02 0.02 0.02 0.01 0.01 0.01 0.01 0.02 0.03 0.04 0.07 0.09 0.10 0.09 0.11 0.11 0.08 0.07 0.06 0.04 0.03 0.05 0.10 0.16 0.23 0.26 0.25 0.22 0.12
0.00 0.00 0.00 0.00 0.00 0.00 0.00 0.00 0.01 0.01 0.02 0.02 0.01 0.01 0.02 0.02 0.02 0.01 0.01 0.01 0.02 0.02 0.04 0.07 0.10 0.10 0.13 0.12 0.11 0.11 0.11 0.10 0.09 0.06 0.03 0.04 0.07 0.12 0.18 0.23 0.27 0.23 0.17
0.00 0.00 0.00 0.00 0.00 0.00 0.00 0.01 0.01 0.02 0.02 0.01 0.01 0.01 0.01 0.02 0.02 0.02 0.01 0.01 0.02 0.03 0.07 0.10 0.13 0.13 0.14 0.14 0.12 0.13 0.12 0.10 0.08 0.06 0.04 0.03 0.04 0.10 0.19 0.26 0.30 0.29 0.21
0.00 0.00 0.00 0.00 0.00 0.00 0.00 0.01 0.01 0.01 0.01 0.01 0.01 0.01 0.01 0.02 0.02 0.02 0.02 0.01 0.02 0.03 0.08 0.11 0.13 0.13 0.13 0.13 0.12 0.14 0.11 0.09 0.07 0.04 0.03 0.03 0.04 0.11 0.20 0.24 0.26 0.26 0.22
0.00 0.00 0.00 0.00 0.00 0.00 0.00 0.01 0.01 0.01 0.01 0.01 0.00 0.00 0.00 0.01 0.01 0.01 0.01 0.02 0.03 0.04 0.06 0.08 0.11 0.12 0.12 0.11 0.10 0.10 0.08 0.07 0.06 0.04 0.03 0.03 0.04 0.09 0.16 0.22 0.23 0.22 0.17
0.00 0.00 0.00 0.00 0.00 0.00 0.00 0.01 0.01 0.01 0.01 0.00 0.00 0.00 0.00 0.00 0.00 0.00 0.00 0.01 0.01 0.02 0.04 0.08 0.09 0.10 0.10 0.09 0.07 0.06 0.05 0.05 0.03 0.02 0.02 0.03 0.04 0.07 0.12 0.19 0.20 0.20 0.16
0.00 0.00 0.00 0.00 0.00 0.00 0.01 0.01 0.02 0.02 0.01 0.01 0.00 0.00 0.00 0.00 0.00 0.00 0.00 0.00 0.01 0.02 0.04 0.07 0.06 0.07 0.07 0.05 0.04 0.03 0.03 0.03 0.02 0.02 0.02 0.02 0.04 0.07 0.09 0.15 0.18 0.18 0.16
0.00 0.00 0.00 0.00 0.00 0.01 0.01 0.02 0.03 0.02 0.02 0.02 0.01 0.00 0.00 0.00 0.00 0.00 0.00 0.00 0.01 0.01 0.03 0.04 0.03 0.03 0.03 0.03 0.03 0.03 0.02 0.02 0.01 0.01 0.02 0.02 0.03 0.06 0.08 0.11 0.15 0.15 0.13
0.00 0.00 0.00 0.00 0.00 0.01 0.02 0.03 0.03 0.03 0.02 0.02 0.01 0.00 0.00 0.00 0.00 0.00 0.00 0.00 0.00 0.00 0.01 0.02 0.01 0.01 0.01 0.02 0.02 0.02 0.02 0.02 0.02 0.01 0.02 0.02 0.03 0.04 0.07 0.10 0.11 0.13 0.11
0.00 0.00 0.00 0.00 0.00 0.01 0.02 0.02 0.03 0.02 0.02 0.02 0.02 0.01 0.01 0.00 0.00 0.00 0.00 0.00 0.00 0.00 0.01 0.01 0.01 0.01 0.01 0.01 0.01 0.01 0.01 0.02 0.02 0.02 0.02 0.02 0.03 0.04 0.05 0.09 0.11 0.10 0.08
0.00 0.00 0.00 0.00 0.01 0.01 0.02 0.02 0.02 0.02 0.02 0.02 0.02 0.01 0.01 0.01 0.01 0.01 0.01 0.01 0.01 0.01 0.01 0.01 0.01 0.01 0.00 0.00 0.00 0.01 0.01 0.01 0.02 0.02 0.02 0.02 0.02 0.03 0.04 0.07 0.10 0.09 0.06
0.00 0.00 0.00 0.00 0.00 0.01 0.01 0.02 0.02 0.02 0.02 0.02 0.02 0.02 0.01 0.01 0.01 0.02 0.02 0.02 0.01 0.01 0.01 0.01 0.01 0.01 0.00 0.00 0.00 0.00 0.01 0.01 0.01 0.01 0.01 0.01 0.02 0.03 0.04 0.06 0.08 0.10 0.08
0.00 0.00 0.00 0.00 0.01 0.01 0.02 0.03 0.02 0.02 0.02 0.02 0.02 0.02 0.02 0.02 0.02 0.02 0.03 0.03 0.02 0.02 0.01 0.01 0.01 0.01 0.00 0.00 0.00 0.00 0.00 0.01 0.01 0.01 0.01 0.01 0.01 0.02 0.03 0.05 0.07 0.09 0.08
0.00 0.00 0.00 0.00 0.00 0.01 0.02 0.02 0.02 0.02 0.02 0.01 0.02 0.03 0.03 0.04 0.04 0.03 0.03 0.03 0.02 0.02 0.02 0.01 0.01 0.00 0.00 0.01 0.01 0.00 0.00 0.00 0.01 0.01 0.01 0.01 0.01 0.02 0.04 0.05 0.07 0.09 0.09
0.00 0.00 0.00 0.00 0.00 0.01 0.01 0.02 0.02 0.02 0.02 0.02 0.03 0.04 0.04 0.05 0.05 0.04 0.04 0.03 0.03 0.04 0.03 0.03 0.02 0.01 0.01 0.01 0.01 0.00 0.00 0.00 0.00 0.01 0.01 0.01 0.02 0.03 0.05 0.06 0.08 0.10 0.12
0.00 0.00 0.00 0.00 0.00 0.00 0.01 0.01 0.02 0.02 0.02 0.03 0.04 0.06 0.05 0.07 0.08 0.06 0.05 0.06 0.06 0.06 0.05 0.04 0.04 0.02 0.01 0.01 0.01 0.00 0.00 0.00 0.01 0.01 0.02 0.03 0.04 0.06 0.08 0.09 0.11 0.12 0.15
MSLP
1013.10 1013.02 1012.99 1012.98 1012.96 1012.90 1012.82 1012.70 1012.55 1012.39 1012.23 1012.06 1011.87 1011.67 1011.45 1011.21 1010.95 1010.69 1010.44 1010.23 1010.07 1009.97 1009.92 1009.91 1009.92 1009.93 1009.92 1009.87 1009.79 1009.67 1009.54 1009.42 1009.31 1009.23 1009.20 1009.20 1009.25 1009.34 1009.47 1009.63 1009.83 1010.08 1010.36
1012.82 1012.72 1012.66 1012.62 1012.57 1012.51 1012.42 1012.30 1012.17 1012.02 1011.86 1011.69 1011.52 1011.32 1011.11 1010.88 1010.63 1010.39 1010.15 1009.95 1009.79 1009.67 1009.60 1009.55 1009.53 1009.50 1009.46 1009.41 1009.34 1009.26 1009.18 1009.13 1009.10 1009.11 1009.16 1009.25 1009.37 1009.52 1009.69 1009.89 1010.11 1010.36 1010.63
1012.51 1012.41 1012.33 1012.26 1012.19 1012.09 1011.98 1011.85 1011.70 1011.55 1011.39 1011.22 1011.05 1010.86 1010.65 1010.43 1010.21 1009.98 1009.76 1009.57 1009.41 1009.29 1009.20 1009.13 1009.07 1009.02 1008.96 1008.90 1008.83 1008.78 1008.75 1008.75 1008.79 1008.87 1009.00 1009.16 1009.35 1009.57 1009.80 1010.05 1010.31 1010.59 1010.88
1012.19 1012.09 1012.00 1011.90 1011.79 1011.67 1011.52 1011.36 1011.19 1011.01 1010.84 1010.66 1010.48 1010.29 1010.09 1009.88 1009.67 1009.46 1009.26 1009.08 1008.93 1008.81 1008.71 1008.63 1008.56 1008.49 1008.42 1008.35 1008.29 1008.26 1008.25 1008.28 1008.37 1008.50 1008.68 1008.90 1009.15 1009.43 1009.73 1010.04 1010.36 1010.70 1011.03
1011.87 1011.77 1011.67 1011.55 1011.40 1011.23 1011.04 1010.84 1010.64 1010.43 1010.23 1010.04 1009.84 1009.65 1009.44 1009.23 1009.02 1008.82 1008.63 1008.46 1008.32 1008.21 1008.11 1008.04 1007.97 1007.90 1007.83 1007.77 1007.72 1007.69 1007.70 1007.75 1007.85 1008.01 1008.22 1008.47 1008.76 1009.09 1009.45 1009.82 1010.22 1010.63 1011.04
1011.55 1011.46 1011.35 1011.20 1011.02 1010.80 1010.57 1010.32 1010.07 1009.83 1009.60 1009.37 1009.15 1008.94 1008.72 1008.49 1008.28 1008.07 1007.88 1007.72 1007.58 1007.48 1007.39 1007.33 1007.28 1007.23 1007.18 1007.14 1007.10 1007.09 1007.10 1007.16 1007.27 1007.42 1007.64 1007.90 1008.22 1008.58 1008.98 1009.42 1009.89 1010.38 1010.89
1011.26 1011.18 1011.05 1010.87 1010.65 1010.39 1010.10 1009.80 1009.51 1009.22 1008.95 1008.69 1008.43 1008.18 1007.93 1007.68 1007.44 1007.22 1007.01 1006.84 1006.71 1006.61 1006.54 1006.50 1006.48 1006.46 1006.45 1006.44 1006.44 1006.44 1006.47 1006.53 1006.64 1006.78 1006.99 1007.24 1007.56 1007.93 1008.37 1008.86 1009.39 1009.98 1010.59
1011.01 1010.92 1010.77 1010.57 1010.30 1009.99 1009.65 1009.30 1008.95 1008.62 1008.30 1007.99 1007.70 1007.40 1007.11 1006.82 1006.54 1006.28 1006.05 1005.86 1005.72 1005.63 1005.57 1005.56 1005.57 1005.60 1005.63 1005.67 1005.71 1005.76 1005.81 1005.89 1005.99 1006.13 1006.31 1006.56 1006.86 1007.24 1007.68 1008.21 1008.80 1009.46 1010.17
1010.80 1010.69 1010.52 1010.27 1009.95 1009.59 1009.20 1008.80 1008.40 1008.02 1007.65 1007.30 1006.96 1006.62 1006.28 1005.95 1005.62 1005.32 1005.06 1004.84 1004.68 1004.57 1004.53 1004.54 1004.58 1004.66 1004.75 1004.85 1004.94 1005.04 1005.13 1005.23 1005.35 1005.49 1005.67 1005.90 1006.19 1006.55 1007.00 1007.54 1008.17 1008.88 1009.67
1010.61 1010.49 1010.27 1009.98 1009.61 1009.19 1008.74 1008.29 1007.84 1007.41 1007.00 1006.61 1006.23 1005.84 1005.47 1005.09 1004.73 1004.39 1004.09 1003.84 1003.65 1003.53 1003.49 1003.51 1003.58 1003.69 1003.83 1003.99 1004.14 1004.30 1004.44 1004.59 1004.73 1004.89 1005.07 1005.29 1005.57 1005.93 1006.37 1006.91 1007.55 1008.29 1009.12
1010.44 1010.28 1010.02 1009.67 1009.24 1008.77 1008.27 1007.76 1007.27 1006.80 1006.36 1005.93 1005.52 1005.11 1004.71 1004.31 1003.92 1003.55 1003.22 1002.94 1002.73 1002.59 1002.54 1002.55 1002.63 1002.77 1002.94 1003.14 1003.35 1003.56 1003.76 1003.95 1004.14 1004.33 1004.53 1004.77 1005.05 1005.39 1005.83 1006.36 1006.99 1007.73 1008.58
1010.26 1010.04 1009.73 1009.32 1008.84 1008.31 1007.76 1007.21 1006.68 1006.19 1005.72 1005.27 1004.85 1004.44 1004.03 1003.63 1003.24 1002.86 1002.52 1002.23 1002.00 1001.84 1001.76 1001.75 1001.83 1001.96 1002.14 1002.37 1002.61 1002.86 1003.11 1003.35 1003.58 1003.81 1004.05 1004.31 1004.60 1004.95 1005.38 1005.89 1006.51 1007.24 1008.06
1010.03 1009.76 1009.39 1008.92 1008.39 1007.81 1007.22 1006.64 1006.08 1005.57 1005.09 1004.65 1004.24 1003.85 1003.46 1003.09 1002.72 1002.36 1002.03 1001.74 1001.50 1001.32 1001.21 1001.18 1001.22 1001.32 1001.49 1001.70 1001.95 1002.22 1002.49 1002.77 1003.05 1003.33 1003.61 1003.90 1004.23 1004.59 1005.02 1005.52 1006.12 1006.81 1007.60
1009.74 1009.42 1008.99 1008.48 1007.90 1007.28 1006.66 1006.05 1005.48 1004.96 1004.49 1004.07 1003.69 1003.34 1003.00 1002.68 1002.37 1002.06 1001.77 1001.49 1001.26 1001.06 1000.93 1000.85 1000.84 1000.89 1001.01 1001.19 1001.41 1001.66 1001.95 1002.25 1002.56 1002.88 1003.21 1003.54 1003.90 1004.29 1004.73 1005.23 1005.81 1006.46 1007.21
1009.39 1009.02 1008.55 1007.99 1007.38 1006.73 1006.08 1005.46 1004.89 1004.37 1003.92 1003.53 1003.19 1002.90 1002.63 1002.39 1002.15 1001.91 1001.67 1001.44 1001.23 1001.03 1000.87 1000.75 1000.68 1000.67 1000.72 1000.83 1001.00 1001.22 1001.49 1001.79 1002.12 1002.47 1002.83 1003.22 1003.62 1004.04 1004.50 1005.01 1005.57 1006.20 1006.90
1008.98 1008.57 1008.07 1007.49 1006.85 1006.19 1005.53 1004.90 1004.33 1003.82 1003.39 1003.03 1002.74 1002.51 1002.32 1002.16 1002.00 1001.85 1001.68 1001.51 1001.33 1001.14 1000.97 1000.81 1000.68 1000.60 1000.57 1000.61 1000.71 1000.88 1001.11 1001.40 1001.73 1002.10 1002.50 1002.92 1003.37 1003.83 1004.32 1004.84 1005.40 1006.00 1006.66
1008.53 1008.10 1007.59 1007.00 1006.35 1005.69 1005.03 1004.40 1003.82 1003.32 1002.90 1002.57 1002.32 1002.14 1002.01 1001.93 1001.85 1001.78 1001.69 1001.58 1001.45 1001.29 1001.11 1000.93 1000.76 1000.62 1000.52 1000.48 1000.52 1000.63 1000.81 1001.07 1001.40 1001.78 1002.20 1002.66 1003.14 1003.64 1004.17 1004.71 1005.27 1005.87 1006.50
1008.07 1007.65 1007.13 1006.55 1005.92 1005.26 1004.60 1003.96 1003.39 1002.88 1002.46 1002.14 1001.90 1001.75 1001.67 1001.64 1001.63 1001.63 1001.61 1001.56 1001.48 1001.35 1001.19 1001.00 1000.81 1000.63 1000.48 1000.39 1000.37 1000.43 1000.58 1000.81 1001.13 1001.51 1001.95 1002.43 1002.94 1003.48 1004.03 1004.59 1005.17 1005.76 1006.38
1007.63 1007.22 1006.74 1006.18 1005.56 1004.91 1004.26 1003.62 1003.03 1002.51 1002.07 1001.73 1001.49 1001.34 1001.27 1001.26 1001.28 1001.33 1001.36 1001.36 1001.32 1001.24 1001.10 1000.93 1000.75 1000.56 1000.39 1000.28 1000.22 1000.26 1000.38 1000.59 1000.90 1001.28 1001.73 1002.23 1002.76 1003.32 1003.89 1004.48 1005.06 1005.66 1006.27
1007.22 1006.86 1006.41 1005.89 1005.30 1004.67 1004.02 1003.38 1002.77 1002.21 1001.74 1001.35 1001.07 1000.89 1000.79 1000.77 1000.80 1000.85 1000.91 1000.94 1000.94 1000.90 1000.80 1000.67 1000.51 1000.34 1000.19 1000.08 1000.03 1000.06 1000.18 1000.39 1000.69 1001.07 1001.53 1002.03 1002.58 1003.15 1003.74 1004.33 1004.93 1005.52 1006.13
1006.87 1006.57 1006.17 1005.69 1005.14 1004.53 1003.89 1003.23 1002.59 1001.99 1001.46 1001.02 1000.67 1000.42 1000.27 1000.20 1000.19 1000.23 1000.28 1000.32 1000.34 1000.33 1000.27 1000.18 1000.07 999.95 999.84 999.77 999.75 999.80 999.94 1000.17 1000.48 1000.87 1001.32 1001.84 1002.38 1002.96 1003.54 1004.14 1004.73 1005.33 1005.93
1006.58 1006.33 1006.00 1005.57 1005.06 1004.47 1003.84 1003.17 1002.50 1001.86 1001.26 1000.74 1000.31 999.98 999.74 999.60 999.52 999.51 999.52 999.55 999.58 999.58 999.56 999.52 999.46 999.40 999.36 999.35 999.38 999.49 999.67 999.92 1000.25 1000.65 1001.11 1001.61 1002.16 1002.72 1003.30 1003.88 1004.47 1005.06 1005.66
1006.33 1006.15 1005.88 1005.51 1005.04 1004.48 1003.86 1003.19 1002.49 1001.81 1001.15 1000.56 1000.04 999.61 999.28 999.04 998.88 998.79 998.75 998.73 998.74 998.75 998.75 998.75 998.75 998.76 998.78 998.85 998.96 999.12 999.35 999.64 1000.00 1000.41 1000.87 1001.37 1001.89 1002.44 1003.00 1003.56 1004.14 1004.72 1005.32
1006.12 1006.01 1005.80 1005.49 1005.06 1004.54 1003.93 1003.27 1002.56 1001.84 1001.14 1000.48 999.89 999.37 998.94 998.60 998.35 998.17 998.05 997.99 997.96 997.95 997.96 997.99 998.03 998.10 998.20 998.34 998.52 998.75 999.03 999.36 999.74 1000.17 1000.62 1001.11 1001.61 1002.13 1002.66 1003.21 1003.76 1004.32 1004.91
1005.95 1005.90 1005.75 1005.49 1005.11 1004.62 1004.05 1003.40 1002.69 1001.97 1001.24 1000.54 999.88 999.29 998.78 998.36 998.01 997.74 997.55 997.41 997.33 997.30 997.30 997.34 997.42 997.54 997.69 997.89 998.14 998.42 998.75 999.12 999.52 999.95 1000.40 1000.87 1001.34 1001.83 1002.33 1002.84 1003.37 1003.91 1004.48
1005.81 1005.82 1005.71 1005.49 1005.16 1004.72 1004.19 1003.57 1002.89 1002.17 1001.44 1000.72 1000.04 999.41 998.83 998.34 997.91 997.57 997.29 997.09 996.96 996.89 996.87 996.91 997.01 997.15 997.35 997.59 997.88 998.21 998.57 998.96 999.37 999.80 1000.23 1000.67 1001.12 1001.57 1002.03 1002.50 1002.99 1003.51 1004.06
Thickness
5648 5643 5638 5632 5628 5623 5617 5613 5609 5606 5603 5600 5598 5597 5596 5596 5596 5597 5598 5601 5604 5607 5610 5614 5619 5624 5629 5633 5637 5642 5646 5650 5653 5664 5675 5683 5687 5690 5692 5695 5698 5701 5704
5645 5639 5632 5627 5620 5614 5609 5605 5600 5596 5593 5590 5588 5586 5585 5585 5585 5585 5586 5589 5590 5593 5597 5600 5605 5611 5616 5621 5626 5631 5636 5642 5646 5653 5662 5671 5677 5681 5683 5685 5687 5691 5695
5641 5634 5627 5621 5614 5608 5602 5597 5592 5588 5584 5582 5579 5577 5576 5575 5575 5575 5575 5576 5577 5580 5583 5586 5591 5595 5601 5607 5614 5620 5626 5633 5639 5644 5652 5660 5666 5669 5671 5673 5676 5681 5685
5637 5629 5622 5615 5609 5602 5596 5590 5585 5581 5577 5574 5572 5570 5568 5566 5565 5564 5564 5564 5564 5566 5568 5571 5575 5580 5586 5593 5600 5607 5614 5621 5628 5635 5642 5649 5655 5659 5663 5664 5666 5670 5676
5632 5625 5617 5611 5603 5596 5589 5583 5579 5575 5572 5569 5565 5562 5559 5557 5555 5553 5551 5551 5550 5550 5552 5554 5558 5564 5572 5578 5586 5593 5601 5608 5616 5624 5631 5638 5644 5649 5654 5657 5659 5662 5666
5627 5620 5613 5606 5598 5590 5583 5577 5572 5568 5565 5561 5558 5555 5551 5550 5548 5545 5541 5538 5536 5535 5535 5537 5541 5547 5555 5563 5572 5581 5589 5596 5604 5613 5621 5629 5637 5644 5649 5651 5654 5656 5659
5623 5615 5608 5600 5592 5584 5578 5572 5567 5562 5558 5554 5550 5547 5543 5541 5537 5534 5531 5527 5524 5522 5521 5522 5526 5533 5539 5546 5556 5567 5577 5587 5597 5605 5612 5622 5631 5639 5643 5644 5648 5652 5654
5618 5610 5602 5594 5586 5579 5572 5566 5561 5556 5552 5548 5544 5540 5536 5534 5530 5526 5522 5517 5514 5511 5510 5510 5511 5516 5522 5528 5537 5549 5561 5573 5586 5596 5607 5616 5624 5632 5639 5643 5645 5643 5645
5613 5605 5597 5589 5581 5574 5567 5561 5556 5551 5547 5542 5539 5535 5531 5528 5524 5518 5513 5507 5503 5501 5499 5499 5500 5504 5509 5515 5522 5535 5548 5559 5571 5584 5595 5605 5615 5624 5630 5631 5632 5635 5637
5608 5600 5591 5583 5576 5569 5563 5557 5552 5547 5542 5538 5535 5531 5527 5522 5518 5512 5505 5498 5493 5490 5488 5488 5491 5494 5499 5504 5512 5523 5535 5547 5559 5570 5581 5593 5604 5614 5622 5629 5633 5635 5636
5602 5595 5587 5579 5571 5566 5560 5553 5548 5543 5539 5534 5531 5528 5523 5517 5512 5505 5499 5491 5487 5483 5481 5481 5483 5487 5491 5497 5506 5517 5530 5540 5549 5560 5570 5581 5593 5604 5614 5622 5630 5635 5637
5597 5589 5582 5574 5568 5563 5555 5550 5544 5539 5534 5531 5526 5522 5517 5511 5505 5500 5495 5489 5484 5479 5478 5478 5480 5484 5488 5495 5503 5514 5524 5532 5540 5550 5561 5573 5585 5598 5608 5617 5623 5629 5635
5591 5583 5577 5571 5564 5558 5552 5547 5541 5536 5531 5527 5522 5517 5511 5506 5500 5496 5491 5488 5484 5480 5479 5480 5482 5485 5489 5495 5504 5513 5521 5529 5537 5546 5557 5568 5580 5591 5600 5608 5614 5618 5622
5586 5579 5573 5568 5562 5556 5550 5544 5538 5534 5530 5525 5519 5514 5507 5502 5497 5492 5488 5485 5485 5483 5482 5483 5486 5489 5493 5499 5505 5512 5520 5528 5537 5545 5553 5562 5572 5582 5593 5602 5608 5612 5613
5581 5575 5570 5565 5559 5554 5549 5543 5538 5534 5529 5524 5519 5513 5506 5501 5497 5491 5486 5485 5484 5485 5485 5486 5489 5492 5496 5501 5506 5513 5520 5527 5534 5541 5549 5558 5568 5578 5587 5596 5603 5607 5610
5578 5572 5567 5563 5558 5552 5547 5545 5542 5536 5533 5528 5521 5514 5508 5503 5498 5493 5490 5488 5488 5489 5490 5492 5495 5497 5501 5506 5510 5514 5520 5527 5534 5541 5548 5556 5564 5574 5582 5590 5597 5603 5607
5574 5569 5566 5561 5556 5551 5546 5541 5540 5540 5536 5531 5525 5517 5510 5505 5500 5496 5493 5491 5492 5493 5494 5497 5500 5503 5506 5510 5514 5518 5523 5529 5534 5540 5547 5554 5562 5570 5577 5584 5591 5597 5600
5571 5568 5564 5559 5554 5550 5545 5541 5537 5535 5533 5531 5526 5520 5514 5508 5503 5499 5496 5494 5495 5497 5499 5503 5506 5509 5512 5515 5519 5523 5527 5530 5535 5540 5546 5553 5560 5567 5574 5581 5586 5592 5595
5568 5564 5561 5557 5553 5549 5545 5541 5539 5536 5533 5530 5526 5521 5516 5510 5506 5502 5498 5497 5499 5502 5504 5507 5511 5514 5517 5521 5524 5527 5531 5534 5537 5541 5546 5552 5558 5564 5570 5576 5582 5586 5590
5564 5563 5560 5556 5552 5548 5545 5542 5540 5537 5534 5531 5528 5524 5518 5512 5508 5506 5503 5503 5504 5506 5510 5513 5516 5519 5522 5525 5528 5530 5533 5536 5539 5542 5546 5551 5556 5562 5568 5573 5579 5583 5587
5560 5557 5557 5553 5550 5547 5544 5542 5540 5538 5535 5532 5530 5527 5523 5517 5516 5514 5512 5511 5511 5513 5515 5518 5520 5523 5526 5528 5531 5534 5537 5538 5541 5544 5547 5550 5555 5559 5565 5570 5575 5579 5583
5556 5553 5551 5550 5548 5545 5543 5541 5539 5538 5536 5534 5532 5529 5527 5522 5521 5520 5519 5519 5519 5520 5521 5523 5525 5528 5531 5533 5535 5537 5539 5540 5542 5544 5547 5550 5553 5557 5562 5567 5572 5575 5579
5552 5550 5549 5547 5545 5543 5541 5539 5538 5537 5536 5535 5533 5531 5528 5526 5524 5523 5523 5523 5524 5524 5526 5527 5529 5532 5535 5538 5540 5542 5543 5545 5546 5548 5548 5550 5552 5556 5560 5565 5569 5573 5577
5548 5547 5545 5543 5541 5539 5537 5536 5536 5536 5536 5535 5534 5532 5530 5528 5527 5526 5525 5525 5526 5527 5528 5530 5532 5535 5538 5540 5543 5545 5547 5549 5550 5550 5551 5552 5553 5556 5559 5563 5567 5571 5575
5545 5543 5541 5538 5536 5535 5534 5533 5534 5534 5534 5534 5533 5532 5531 5529 5527 5526 5525 5525 5526 5527 5529 5531 5533 5536 5539 5542 5544 5546 5548 5549 5551 5552 5552 5553 5554 5556 5558 5562 5565 5569 5573
5541 5538 5535 5533 5531 5530 5529 5529 5530 5531 5533 5533 5533 5532 5531 5529 5527 5526 5525 5525 5525 5526 5528 5531 5533 5536 5539 5541 5543 5545 5546 5547 5549 5550 5552 5553 5554 5555 5558 5561 5564 5568 5571